TimeGMT,TemperatureF,Dew PointF,Humidity,Sea Level PressureIn,VisibilityMPH,Wind Direction,Wind SpeedMPH,Gust SpeedMPH,PrecipitationIn,Events,Conditions,WindDirDegrees,DateUTC
12:20 AM,30.2,26.6,86,30.04,-9999.0,NW,4.6,-,N/A,,Clear,320,2012-12-06 00:20:00
12:50 AM,30.2,24.8,80,30.04,-9999.0,NW,4.6,-,N/A,,Clear,320,2012-12-06 00:50:00
1:20 AM,28.4,24.8,86,30.04,6.2,NW,4.6,-,N/A,,Unknown,310,2012-12-06 01:20:00
1:50 AM,28.4,24.8,86,30.04,6.2,West,4.6,-,N/A,,Unknown,270,2012-12-06 01:50:00
2:20 AM,26.6,23.0,86,30.04,6.2,West,5.8,-,N/A,,Unknown,280,2012-12-06 02:20:00
2:50 AM,26,23,83,30.06,11,West,5.8,,,,,270,2012-12-06 02:50:00
2:50 AM,26.6,23.0,86,30.04,-9999.0,West,6.9,-,N/A,,Clear,270,2012-12-06 02:50:00
3:20 AM,26.6,23.0,86,30.06,-9999.0,West,5.8,-,N/A,,Clear,280,2012-12-06 03:20:00
3:50 AM,26.6,23.0,86,30.06,-9999.0,West,6.9,-,N/A,,Clear,280,2012-12-06 03:50:00
4:20 AM,26.6,23.0,86,30.06,-9999.0,West,5.8,-,N/A,,Clear,280,2012-12-06 04:20:00
4:50 AM,26.6,23.0,86,30.06,-9999.0,West,5.8,-,N/A,,Clear,270,2012-12-06 04:50:00
5:20 AM,28.4,24.8,86,30.06,-9999.0,West,2.3,-,N/A,,Clear,280,2012-12-06 05:20:00
5:50 AM,27,25,89,30.07,11,West,1.2,,,,,270,2012-12-06 05:50:00
5:50 AM,28.4,24.8,86,30.06,-9999.0,Calm,Calm,-,N/A,,Clear,0,2012-12-06 05:50:00
6:20 AM,28.4,24.8,86,30.06,-9999.0,Variable,3.5,-,N/A,,Clear,0,2012-12-06 06:20:00
6:50 AM,26.6,23.0,86,30.06,-9999.0,WSW,5.8,-,N/A,,Clear,240,2012-12-06 06:50:00
7:20 AM,26.6,24.8,93,30.06,-9999.0,SSW,4.6,-,N/A,,Clear,210,2012-12-06 07:20:00
7:50 AM,26.6,24.8,93,30.06,-9999.0,SSW,5.8,-,N/A,,Clear,200,2012-12-06 07:50:00
8:20 AM,28.4,24.8,86,30.06,-9999.0,SSW,5.8,-,N/A,,Clear,200,2012-12-06 08:20:00
8:50 AM,29,26,81,30.09,10,South,4.6,,,,Scattered Clouds,190,2012-12-06 08:50:00
8:50 AM,28.4,26.6,93,30.06,-9999.0,SSW,5.8,-,N/A,,Clear,200,2012-12-06 08:50:00
9:20 AM,30.2,26.6,86,30.06,-9999.0,SW,4.6,-,N/A,,Clear,220,2012-12-06 09:20:00
9:50 AM,30.2,26.6,86,30.06,-9999.0,SSW,4.6,-,N/A,,Clear,210,2012-12-06 09:50:00
10:20 AM,30.2,26.6,86,30.06,-9999.0,SSW,6.9,-,N/A,,Clear,210,2012-12-06 10:20:00
10:50 AM,32.0,26.6,80,30.04,-9999.0,SSW,5.8,-,N/A,,Clear,210,2012-12-06 10:50:00
11:20 AM,32.0,26.6,80,30.04,-9999.0,SSW,8.1,-,N/A,,Clear,200,2012-12-06 11:20:00
11:50 AM,34,27,66,30.03,12,South,8.1,,,,Mostly Cloudy,180,2012-12-06 11:50:00
11:50 AM,33.8,26.6,75,30.01,-9999.0,SSW,8.1,-,N/A,,Clear,210,2012-12-06 11:50:00
12:20 PM,35.6,28.4,75,30.01,-9999.0,SSW,9.2,-,N/A,,Clear,200,2012-12-06 12:20:00
12:50 PM,35.6,26.6,70,29.98,-9999.0,SSW,9.2,-,N/A,,Clear,210,2012-12-06 12:50:00
1:20 PM,37.4,28.4,70,29.98,-9999.0,SSW,8.1,-,N/A,,Clear,210,2012-12-06 13:20:00
1:50 PM,37.4,28.4,70,29.95,-9999.0,SSW,9.2,-,N/A,,Clear,200,2012-12-06 13:50:00
2:20 PM,37.4,30.2,75,29.92,-9999.0,SSW,11.5,-,N/A,,Clear,200,2012-12-06 14:20:00
2:50 PM,38,31,67,29.92,15,South,10.4,,,,Mostly Cloudy,180,2012-12-06 14:50:00
2:50 PM,37.4,30.2,75,29.92,6.2,South,9.2,-,N/A,,Partly Cloudy,190,2012-12-06 14:50:00
3:20 PM,39.2,32.0,75,29.89,6.2,South,11.5,-,N/A,,Partly Cloudy,190,2012-12-06 15:20:00
3:50 PM,37.4,33.8,87,29.89,-9999.0,SSW,12.7,-,N/A,,Clear,200,2012-12-06 15:50:00
4:20 PM,37.4,33.8,87,29.86,6.2,South,9.2,-,N/A,,Partly Cloudy,190,2012-12-06 16:20:00
4:50 PM,37.4,33.8,87,29.83,6.2,South,9.2,-,N/A,,Partly Cloudy,190,2012-12-06 16:50:00
5:20 PM,39.2,33.8,81,29.83,-9999.0,South,10.4,-,N/A,,Clear,190,2012-12-06 17:20:00
5:50 PM,39,35,80,29.80,14,South,11.5,,,,Overcast,180,2012-12-06 17:50:00
5:50 PM,39.2,35.6,87,29.80,-9999.0,SSW,12.7,-,N/A,,Clear,200,2012-12-06 17:50:00
6:20 PM,39.2,35.6,87,29.77,-9999.0,SSW,11.5,-,N/A,,Clear,200,2012-12-06 18:20:00
6:50 PM,39.2,35.6,87,29.74,-9999.0,SSW,11.5,-,N/A,,Clear,200,2012-12-06 18:50:00
7:20 PM,39.2,35.6,87,29.71,6.2,SSW,10.4,-,N/A,,Scattered Clouds,210,2012-12-06 19:20:00
7:50 PM,39.2,35.6,87,29.71,6.2,SSW,11.5,-,N/A,Rain,Light Rain,200,2012-12-06 19:50:00
8:20 PM,39.2,35.6,87,29.68,6.2,SSW,12.7,-,N/A,Rain,Light Rain,200,2012-12-06 20:20:00
8:50 PM,40,37,87,29.65,10,South,13.8,,,Rain,Light Rain,190,2012-12-06 20:50:00
8:50 PM,39.2,37.4,93,29.65,6.2,SSW,12.7,-,N/A,Rain,Light Rain,200,2012-12-06 20:50:00
9:20 PM,39.2,37.4,93,29.62,6.2,SSW,13.8,-,N/A,Rain,Light Rain,200,2012-12-06 21:20:00
9:50 PM,41.0,37.4,87,29.59,6.2,SSW,12.7,-,N/A,Rain,Light Rain,200,2012-12-06 21:50:00
10:20 PM,41.0,37.4,87,29.53,6.2,SSW,15.0,-,N/A,Rain,Light Rain,200,2012-12-06 22:20:00
10:50 PM,41.0,37.4,87,29.50,6.2,SSW,16.1,-,N/A,Rain,Light Rain,200,2012-12-06 22:50:00
11:20 PM,41.0,39.2,93,29.47,6.2,SW,15.0,-,N/A,,Mostly Cloudy,220,2012-12-06 23:20:00
11:50 PM,42,40,88,29.47,5,WSW,20.7,,,Rain,Light Rain Showers,240,2012-12-06 23:50:00
11:50 PM,42.8,39.2,87,29.47,6.2,WSW,18.4,-,N/A,Rain,Light Rain,240,2012-12-06 23:50:00